Flag for Germany Weather past 2 weeks in Hagen, North Rhine-Westphalia, Germany

Now
55 °F

Sprinkles. Broken clouds.


Feels Like: 52 °F
Forecast: 48 / 58 °F
Wind: 12 mph from West

Location: Dortmund / Wickede

Current Time: Sep 5, 2015 at 12:43:25 PM

Latest Report: Sep 5, 2015 at 11:50 AM


Visibility: N/A

Pressure: 29.95 "Hg

Humidity: 82%

Dew point: 50 °F

Location of HagenLocation

Historic Weather in Hagen — Graph

°F

Hagen temperature yesterday

Maximum temperature yesterday: 61 °F (at 4:20 PM)
Minimum temperature yesterday: 52 °F (at 5:20 AM)
Average temperature yesterday: 56 °F

Past Weeks' High & Low Weather Summary

 TemperatureHumidityPressure
High88 °F (Aug 30, 2:20 PM)94% (Aug 24, 5:20 AM)30.24 "Hg (Aug 24, 5:20 AM)
Low48 °F (Sep 2, 5:50 AM)26% (Aug 22, 4:50 PM)29.56 "Hg (Aug 24, 2:50 PM)
Average66 °F64%29.93 "Hg
* Reported Aug 21 11:20 AM — Sep 5 11:20 AM, Hagen, Weather by CustomWeather, © 2015

Note: Actual official high and low records may vary slightly from our data, if they occured in-between our weather recording intervals... More about our weather records

Advertising

Hagen weather history for previous 24 hours

 ConditionsComfort  
Time TempWeatherWind HumidityBarometerVisibility
11:20 AM
Sat, Sep 5
59 °FPartly sunny.15 mph77%29.95 "HgN/A
10:50 AM57 °FPartly sunny.12 mph77%29.95 "HgN/A
10:20 AM57 °FPartly sunny.10 mph77%29.95 "HgN/A
9:50 AM55 °FScattered clouds.9 mph88%29.95 "HgN/A
9:20 AM55 °FPartly sunny.9 mph82%29.95 "HgN/A
8:50 AM54 °FBroken clouds.9 mph88%29.95 "HgN/A
8:20 AM54 °FScattered showers. Partly sunny.8 mph88%29.92 "Hg6 mi
7:50 AM54 °FScattered showers. Partly sunny.8 mph88%29.92 "Hg6 mi
7:20 AM54 °FFog.10 mph88%29.92 "Hg3 mi
6:50 AM54 °FLight rain. Low clouds.10 mph88%29.92 "Hg3 mi
6:20 AM54 °FLight rain. Low clouds.8 mph88%29.92 "Hg4 mi
5:20 AM54 °FLow clouds.8 mph88%29.92 "Hg5 mi
10:20 PM
Fri, Sep 4
54 °FLight rain. Passing clouds.18 mph82%29.89 "HgN/A
9:50 PM55 °FLight rain. Passing clouds.15 mph72%29.89 "HgN/A
9:20 PM55 °FLight rain. Passing clouds.15 mph67%29.89 "HgN/A
8:50 PM55 °FPartly sunny.15 mph67%29.89 "HgN/A
8:20 PM57 °FPartly sunny.14 mph59%29.89 "HgN/A
7:50 PM57 °FSunny.15 mph63%29.89 "Hg10 mi
7:20 PM59 °FSunny.15 mph63%29.89 "Hg10 mi
6:50 PM57 °FSunny.15 mph67%29.89 "Hg10 mi
6:20 PM57 °FSunny.14 mph63%29.89 "Hg10 mi
5:50 PM59 °FSunny.18 mph63%29.92 "Hg10 mi
5:20 PM57 °FScattered clouds.14 mph67%29.92 "HgN/A
4:50 PM59 °FScattered clouds.16 mph59%29.92 "HgN/A
4:20 PM61 °FScattered clouds.18 mph59%29.92 "HgN/A
3:50 PM59 °FPartly sunny.15 mph63%29.92 "HgN/A
3:20 PM59 °FPartly sunny.16 mph63%29.95 "HgN/A
2:50 PM59 °FPartly sunny.16 mph59%29.95 "HgN/A
2:20 PM59 °FPartly sunny.16 mph59%29.95 "HgN/A
1:50 PM59 °FPartly sunny.17 mph59%29.95 "HgN/A
1:20 PM59 °FPartly sunny.14 mph59%29.95 "HgN/A
12:50 PM59 °FPartly sunny.16 mph63%29.95 "HgN/A
12:20 PM59 °FScattered clouds.15 mph63%29.95 "HgN/A
Weather by CustomWeather, © 2015

See weather overviewHow to use our weather pages